Time,TemperatureF,DewpointF,PressureIn,WindDirection,WindDirectionDegrees,WindSpeedMPH,WindSpeedGustMPH,Humidity,HourlyPrecipIn,Conditions,Clouds,dailyrainin,SoftwareType,DateUTC
2013-10-28 00:01:00,37.3,25.1,30.00,SE,125,0.0,0.0,61,0.00,,---,0.00,VWS V14.01,2013-10-28 04:01:00,
2013-10-28 00:02:00,37.3,25.1,30.00,SE,125,0.0,0.0,61,0.00,,---,0.00,VWS V14.01,2013-10-28 04:02:00,
2013-10-28 00:03:00,37.3,25.1,30.00,SE,125,2.0,2.0,61,0.00,,---,0.00,VWS V14.01,2013-10-28 04:03:00,
2013-10-28 00:04:00,37.3,25.1,30.00,ESE,102,0.0,2.0,61,0.00,,---,0.00,VWS V14.01,2013-10-28 04:04:00,
2013-10-28 00:06:00,37.2,25.4,30.00,ESE,102,0.0,0.0,62,0.00,,---,0.00,VWS V14.01,2013-10-28 04:06:00,
2013-10-28 00:09:00,37.0,25.2,30.00,SE,125,2.0,3.0,62,0.00,,---,0.00,VWS V14.01,2013-10-28 04:09:00,
2013-10-28 00:14:00,36.6,24.9,30.00,SE,125,2.0,2.0,62,0.00,,---,0.00,VWS V14.01,2013-10-28 04:14:00,
2013-10-28 00:19:00,36.4,25.1,30.00,SE,125,0.0,2.0,63,0.00,,---,0.00,VWS V14.01,2013-10-28 04:19:00,
2013-10-28 00:24:00,36.1,24.7,30.00,SE,125,2.0,2.0,63,0.00,,---,0.00,VWS V14.01,2013-10-28 04:24:00,
2013-10-28 00:30:00,35.7,24.0,30.00,SSE,148,0.0,3.0,62,0.00,,---,0.00,VWS V14.01,2013-10-28 04:30:00,
2013-10-28 00:35:00,35.5,24.2,30.00,South,170,2.3,2.3,63,0.00,,---,0.00,VWS V14.01,2013-10-28 04:35:00,
2013-10-28 00:40:00,35.5,24.6,30.03,SE,125,2.0,2.0,64,0.00,,---,0.00,VWS V14.01,2013-10-28 04:40:00,
2013-10-28 00:45:00,35.4,24.4,30.03,SE,125,0.0,0.0,64,0.00,,---,0.00,VWS V14.01,2013-10-28 04:45:00,
2013-10-28 00:50:00,35.4,24.4,30.03,SW,215,0.0,0.0,64,0.00,,---,0.00,VWS V14.01,2013-10-28 04:50:00,
2013-10-28 00:55:00,35.2,24.2,30.03,NW,305,0.0,0.0,64,0.00,,---,0.00,VWS V14.01,2013-10-28 04:55:00,
2013-10-28 01:00:00,35.2,24.6,30.03,NW,305,0.0,0.0,65,0.00,,---,0.00,VWS V14.01,2013-10-28 05:00:00,
2013-10-28 01:05:00,35.2,25.0,30.03,NW,305,0.0,0.0,66,0.00,,---,0.00,VWS V14.01,2013-10-28 05:05:00,
2013-10-28 01:10:00,35.2,25.0,30.03,South,170,0.0,0.0,66,0.00,,---,0.00,VWS V14.01,2013-10-28 05:10:00,
2013-10-28 01:15:00,35.2,25.0,30.03,SW,215,0.0,0.0,66,0.00,,---,0.00,VWS V14.01,2013-10-28 05:15:00,
2013-10-28 01:20:00,35.2,25.0,30.03,SW,215,0.0,0.0,66,0.00,,---,0.00,VWS V14.01,2013-10-28 05:20:00,
2013-10-28 01:25:00,35.2,25.0,30.03,SW,215,0.0,0.0,66,0.00,,---,0.00,VWS V14.01,2013-10-28 05:25:00,
2013-10-28 01:30:00,35.0,25.2,30.03,South,170,0.0,0.0,67,0.00,,---,0.00,VWS V14.01,2013-10-28 05:30:00,
2013-10-28 01:35:00,35.0,25.2,30.03,South,170,0.0,0.0,67,0.00,,---,0.00,VWS V14.01,2013-10-28 05:35:00,
2013-10-28 01:40:00,35.0,25.5,30.03,SE,125,0.0,0.0,68,0.00,,---,0.00,VWS V14.01,2013-10-28 05:40:00,
2013-10-28 01:45:00,35.0,25.2,30.03,SE,125,0.0,0.0,67,0.00,,---,0.00,VWS V14.01,2013-10-28 05:45:00,
2013-10-28 01:50:00,34.8,25.4,30.03,South,170,1.7,1.7,68,0.00,,---,0.00,VWS V14.01,2013-10-28 05:50:00,
2013-10-28 01:55:00,34.6,25.5,30.03,SE,125,0.0,1.7,69,0.00,,---,0.00,VWS V14.01,2013-10-28 05:55:00,
2013-10-28 02:00:00,34.6,25.5,30.03,South,170,2.0,2.0,69,0.00,,---,0.00,VWS V14.01,2013-10-28 06:00:00,
2013-10-28 02:05:00,34.5,25.0,30.03,SE,125,1.7,2.3,68,0.00,,---,0.00,VWS V14.01,2013-10-28 06:05:00,
2013-10-28 02:10:00,34.3,25.2,30.03,SE,125,1.3,1.3,69,0.00,,---,0.00,VWS V14.01,2013-10-28 06:10:00,
2013-10-28 02:15:00,34.3,25.5,30.03,SE,125,2.3,2.3,70,0.00,,---,0.00,VWS V14.01,2013-10-28 06:15:00,
2013-10-28 02:20:00,34.1,25.4,30.03,SE,125,2.0,2.3,70,0.00,,---,0.00,VWS V14.01,2013-10-28 06:20:00,
2013-10-28 02:25:00,34.1,25.4,30.03,SE,125,0.0,1.3,70,0.00,,---,0.00,VWS V14.01,2013-10-28 06:25:00,
2013-10-28 02:30:00,33.9,25.2,30.03,SE,125,2.0,2.0,70,0.00,,---,0.00,VWS V14.01,2013-10-28 06:30:00,
2013-10-28 02:35:00,33.7,25.4,30.03,SE,125,3.0,3.0,71,0.00,,---,0.00,VWS V14.01,2013-10-28 06:35:00,
2013-10-28 02:40:00,33.6,25.2,30.03,SE,125,2.0,3.0,71,0.00,,---,0.00,VWS V14.01,2013-10-28 06:40:00,
2013-10-28 02:45:00,33.7,25.4,30.03,SE,125,1.7,2.3,71,0.00,,---,0.00,VWS V14.01,2013-10-28 06:45:00,
2013-10-28 02:50:00,33.7,25.0,30.03,South,170,0.0,0.0,70,0.00,,---,0.00,VWS V14.01,2013-10-28 06:50:00,
2013-10-28 02:55:00,33.7,25.4,30.03,South,170,0.0,0.0,71,0.00,,---,0.00,VWS V14.01,2013-10-28 06:55:00,
2013-10-28 03:00:00,33.6,24.8,30.03,South,170,0.0,0.0,70,0.00,,---,0.00,VWS V14.01,2013-10-28 07:00:00,
2013-10-28 03:05:00,33.6,24.8,30.03,SE,125,1.7,1.7,70,0.00,,---,0.00,VWS V14.01,2013-10-28 07:05:00,
2013-10-28 03:10:00,33.0,25.0,30.03,SE,125,3.0,3.0,72,0.00,,---,0.00,VWS V14.01,2013-10-28 07:10:00,
2013-10-28 03:16:00,33.0,25.3,30.03,SE,125,2.0,4.0,73,0.00,,---,0.00,VWS V14.01,2013-10-28 07:16:00,
2013-10-28 03:21:00,33.0,25.0,30.03,SE,125,2.0,2.0,72,0.00,,---,0.00,VWS V14.01,2013-10-28 07:21:00,
2013-10-28 03:26:00,33.2,25.2,30.03,South,170,0.0,3.3,72,0.00,,---,0.00,VWS V14.01,2013-10-28 07:26:00,
2013-10-28 03:31:00,33.2,25.5,30.03,South,170,0.0,0.0,73,0.00,,---,0.00,VWS V14.01,2013-10-28 07:31:00,
2013-10-28 03:36:00,33.2,24.5,30.03,South,170,0.0,0.0,70,0.00,,---,0.00,VWS V14.01,2013-10-28 07:36:00,
2013-10-28 03:41:00,33.0,24.7,30.03,South,170,2.0,2.3,71,0.00,,---,0.00,VWS V14.01,2013-10-28 07:41:00,
2013-10-28 03:46:00,33.0,25.0,30.03,SE,125,0.0,0.0,72,0.00,,---,0.00,VWS V14.01,2013-10-28 07:46:00,
2013-10-28 03:51:00,33.0,25.0,30.03,South,170,0.0,0.0,72,0.00,,---,0.00,VWS V14.01,2013-10-28 07:51:00,
2013-10-28 03:56:00,33.0,25.3,30.03,West,260,0.0,0.0,73,0.00,,---,0.00,VWS V14.01,2013-10-28 07:56:00,
2013-10-28 04:01:00,33.0,25.0,30.03,SW,215,0.0,0.0,72,0.00,,---,0.00,VWS V14.01,2013-10-28 08:01:00,
2013-10-28 04:06:00,32.8,24.8,30.03,SW,215,0.0,0.0,72,0.00,,---,0.00,VWS V14.01,2013-10-28 08:06:00,
2013-10-28 04:11:00,32.7,24.3,30.06,SW,215,0.0,0.0,71,0.00,,---,0.00,VWS V14.01,2013-10-28 08:11:00,
2013-10-28 04:16:00,32.7,24.3,30.06,SW,215,0.0,1.3,71,0.00,,---,0.00,VWS V14.01,2013-10-28 08:16:00,
2013-10-28 04:21:00,32.7,24.6,30.06,NW,305,0.0,0.0,72,0.00,,---,0.00,VWS V14.01,2013-10-28 08:21:00,
2013-10-28 04:26:00,32.7,25.0,30.06,NW,305,0.0,0.0,73,0.00,,---,0.00,VWS V14.01,2013-10-28 08:26:00,
2013-10-28 04:31:00,32.7,25.0,30.06,NW,305,0.0,0.0,73,0.00,,---,0.00,VWS V14.01,2013-10-28 08:31:00,
2013-10-28 04:36:00,32.7,25.0,30.06,NW,305,0.0,0.0,73,0.00,,---,0.00,VWS V14.01,2013-10-28 08:36:00,
2013-10-28 04:41:00,32.5,24.8,30.06,NW,305,0.0,0.0,73,0.00,,---,0.00,VWS V14.01,2013-10-28 08:41:00,
2013-10-28 04:46:00,32.5,25.1,30.06,NW,305,0.0,0.0,74,0.00,,---,0.00,VWS V14.01,2013-10-28 08:46:00,
2013-10-28 04:51:00,32.5,24.8,30.06,NW,305,0.0,0.0,73,0.00,,---,0.00,VWS V14.01,2013-10-28 08:51:00,
2013-10-28 04:56:00,32.3,24.6,30.06,SW,215,0.0,0.0,73,0.00,,---,0.00,VWS V14.01,2013-10-28 08:56:00,
2013-10-28 05:01:00,32.1,24.5,30.06,West,260,0.0,0.0,73,0.00,,---,0.00,VWS V14.01,2013-10-28 09:01:00,
2013-10-28 05:06:00,32.1,24.8,30.06,NW,305,0.0,0.0,74,0.00,,---,0.00,VWS V14.01,2013-10-28 09:06:00,
2013-10-28 05:11:00,32.1,24.8,30.06,NW,305,0.0,0.0,74,0.00,,---,0.00,VWS V14.01,2013-10-28 09:11:00,
2013-10-28 05:16:00,32.3,25.0,30.06,NW,305,0.0,0.0,74,0.00,,---,0.00,VWS V14.01,2013-10-28 09:16:00,
2013-10-28 05:21:00,32.3,25.0,30.06,NW,305,0.0,0.0,74,0.00,,---,0.00,VWS V14.01,2013-10-28 09:21:00,
2013-10-28 05:26:00,32.1,24.8,30.06,NW,305,0.0,0.0,74,0.00,,---,0.00,VWS V14.01,2013-10-28 09:26:00,
2013-10-28 05:31:00,32.1,24.8,30.06,NW,305,0.0,0.0,74,0.00,,---,0.00,VWS V14.01,2013-10-28 09:31:00,
2013-10-28 05:36:00,31.9,24.6,30.06,SE,125,0.0,0.0,74,0.00,,---,0.00,VWS V14.01,2013-10-28 09:36:00,
2013-10-28 05:41:00,31.9,24.6,30.09,East,80,0.0,0.0,74,0.00,,---,0.00,VWS V14.01,2013-10-28 09:41:00,
2013-10-28 05:46:00,31.9,24.6,30.09,South,170,0.0,0.0,74,0.00,,---,0.00,VWS V14.01,2013-10-28 09:46:00,
2013-10-28 05:51:00,31.9,24.9,30.09,South,170,0.0,0.0,75,0.00,,---,0.00,VWS V14.01,2013-10-28 09:51:00,
2013-10-28 05:56:00,31.9,24.9,30.09,South,170,0.0,0.0,75,0.00,,---,0.00,VWS V14.01,2013-10-28 09:56:00,
2013-10-28 06:01:00,32.1,25.4,30.09,SE,125,0.0,0.0,76,0.00,,---,0.00,VWS V14.01,2013-10-28 10:01:00,
2013-10-28 06:06:00,32.1,25.1,30.09,SE,125,0.0,0.0,75,0.00,,---,0.00,VWS V14.01,2013-10-28 10:06:00,
2013-10-28 06:11:00,32.1,25.1,30.09,SE,125,0.0,0.0,75,0.00,,---,0.00,VWS V14.01,2013-10-28 10:11:00,
2013-10-28 06:17:00,32.1,25.4,30.09,SE,125,0.0,0.0,76,0.00,,---,0.00,VWS V14.01,2013-10-28 10:17:00,
2013-10-28 06:22:00,32.3,25.6,30.09,SE,125,0.0,0.0,76,0.00,,---,0.00,VWS V14.01,2013-10-28 10:22:00,
2013-10-28 06:27:00,32.5,25.5,30.09,SE,125,1.7,1.7,75,0.00,,---,0.00,VWS V14.01,2013-10-28 10:27:00,
2013-10-28 06:32:00,32.7,25.6,30.09,SE,125,0.0,0.0,75,0.00,,---,0.00,VWS V14.01,2013-10-28 10:32:00,
2013-10-28 06:37:00,32.7,25.6,30.09,SE,125,0.0,0.0,75,0.00,,---,0.00,VWS V14.01,2013-10-28 10:37:00,
2013-10-28 06:42:00,33.0,26.3,30.09,SE,125,0.0,0.0,76,0.00,,---,0.00,VWS V14.01,2013-10-28 10:42:00,
2013-10-28 06:47:00,33.0,26.3,30.09,NE,35,0.0,0.0,76,0.00,,---,0.00,VWS V14.01,2013-10-28 10:47:00,
2013-10-28 06:52:00,33.2,26.5,30.09,East,80,0.0,0.0,76,0.00,,---,0.00,VWS V14.01,2013-10-28 10:52:00,
2013-10-28 06:57:00,33.4,26.6,30.09,SE,125,0.0,0.0,76,0.00,,---,0.00,VWS V14.01,2013-10-28 10:57:00,
2013-10-28 07:02:00,33.4,26.6,30.09,SE,125,0.0,0.0,76,0.00,,---,0.00,VWS V14.01,2013-10-28 11:02:00,
2013-10-28 07:07:00,33.6,26.8,30.09,NE,35,0.0,0.0,76,0.00,,---,0.00,VWS V14.01,2013-10-28 11:07:00,
2013-10-28 07:12:00,33.7,27.0,30.09,NE,35,0.0,0.0,76,0.00,,---,0.00,VWS V14.01,2013-10-28 11:12:00,
2013-10-28 07:17:00,33.7,27.0,30.09,NE,35,0.0,0.0,76,0.00,,---,0.00,VWS V14.01,2013-10-28 11:17:00,
2013-10-28 07:22:00,33.9,27.2,30.09,NE,35,3.3,3.3,76,0.00,,---,0.00,VWS V14.01,2013-10-28 11:22:00,
2013-10-28 07:27:00,33.9,27.2,30.09,North,350,0.0,2.3,76,0.00,,---,0.00,VWS V14.01,2013-10-28 11:27:00,
2013-10-28 07:32:00,34.1,27.3,30.09,North,350,0.0,0.0,76,0.00,,---,0.00,VWS V14.01,2013-10-28 11:32:00,
2013-10-28 07:37:00,34.3,27.5,30.12,North,350,0.0,0.0,76,0.00,,---,0.00,VWS V14.01,2013-10-28 11:37:00,
2013-10-28 07:42:00,34.3,27.5,30.12,North,350,0.0,0.0,76,0.00,,---,0.00,VWS V14.01,2013-10-28 11:42:00,
2013-10-28 07:47:00,34.3,27.5,30.12,North,350,0.0,0.0,76,0.00,,---,0.00,VWS V14.01,2013-10-28 11:47:00,
2013-10-28 07:52:00,34.3,27.5,30.12,North,350,0.0,1.7,76,0.00,,---,0.00,VWS V14.01,2013-10-28 11:52:00,
2013-10-28 07:57:00,34.3,27.5,30.12,North,350,0.0,0.0,76,0.00,,---,0.00,VWS V14.01,2013-10-28 11:57:00,
2013-10-28 08:02:00,34.3,27.5,30.12,North,350,1.3,1.3,76,0.00,,---,0.00,VWS V14.01,2013-10-28 12:02:00,
2013-10-28 08:07:00,34.3,27.5,30.12,SW,215,0.0,0.0,76,0.00,,---,0.00,VWS V14.01,2013-10-28 12:07:00,
2013-10-28 08:12:00,34.3,27.5,30.12,SW,215,0.0,0.0,76,0.00,,---,0.00,VWS V14.01,2013-10-28 12:12:00,
2013-10-28 08:17:00,34.3,27.8,30.12,SW,215,0.0,0.0,77,0.00,,---,0.00,VWS V14.01,2013-10-28 12:17:00,
2013-10-28 08:23:00,34.3,27.8,30.15,SW,215,0.0,0.0,77,0.00,,---,0.00,VWS V14.01,2013-10-28 12:23:00,
2013-10-28 08:28:00,34.3,27.8,30.15,SW,215,0.0,0.0,77,0.00,,---,0.00,VWS V14.01,2013-10-28 12:28:00,
2013-10-28 08:33:00,34.3,27.8,30.15,North,350,1.7,1.7,77,0.00,,---,0.00,VWS V14.01,2013-10-28 12:33:00,
2013-10-28 08:38:00,34.5,28.0,30.15,North,350,1.7,1.7,77,0.00,,---,0.00,VWS V14.01,2013-10-28 12:38:00,
2013-10-28 08:43:00,34.6,28.2,30.15,North,350,2.0,2.0,77,0.00,,---,0.00,VWS V14.01,2013-10-28 12:43:00,
2013-10-28 08:48:00,34.6,28.2,30.15,North,350,0.0,0.0,77,0.00,,---,0.00,VWS V14.01,2013-10-28 12:48:00,
2013-10-28 08:53:00,34.5,28.0,30.15,North,350,1.7,1.7,77,0.00,,---,0.00,VWS V14.01,2013-10-28 12:53:00,
2013-10-28 08:58:00,34.8,28.7,30.15,North,350,2.3,2.3,78,0.00,,---,0.00,VWS V14.01,2013-10-28 12:58:00,
2013-10-28 09:03:00,35.0,28.5,30.15,North,350,1.7,2.3,77,0.00,,---,0.00,VWS V14.01,2013-10-28 13:03:00,
2013-10-28 09:08:00,35.5,29.1,30.15,NE,35,3.3,3.3,77,0.00,,---,0.00,VWS V14.01,2013-10-28 13:08:00,
2013-10-28 09:13:00,36.3,30.1,30.18,NE,35,3.0,3.0,78,0.00,,---,0.00,VWS V14.01,2013-10-28 13:13:00,
2013-10-28 09:18:00,37.2,31.0,30.18,NE,35,4.0,4.0,78,0.00,,---,0.00,VWS V14.01,2013-10-28 13:18:00,
2013-10-28 09:23:00,38.1,31.5,30.18,NE,35,3.0,3.6,77,0.00,,---,0.00,VWS V14.01,2013-10-28 13:23:00,
2013-10-28 09:28:00,38.8,32.2,30.18,NE,35,2.0,3.0,77,0.00,,---,0.00,VWS V14.01,2013-10-28 13:28:00,
2013-10-28 09:33:00,39.3,32.4,30.18,East,80,1.3,4.3,76,0.00,,---,0.00,VWS V14.01,2013-10-28 13:33:00,
2013-10-28 09:38:00,39.7,32.8,30.18,NE,35,5.6,5.6,76,0.00,,---,0.00,VWS V14.01,2013-10-28 13:38:00,
2013-10-28 09:44:00,40.0,32.8,30.18,ENE,58,3.3,5.6,75,0.00,,---,0.00,VWS V14.01,2013-10-28 13:44:00,
2013-10-28 09:49:00,40.2,32.9,30.18,NE,35,2.3,2.3,75,0.00,,---,0.00,VWS V14.01,2013-10-28 13:49:00,
2013-10-28 09:54:00,40.6,33.0,30.21,NE,35,4.0,5.0,74,0.00,,---,0.00,VWS V14.01,2013-10-28 13:54:00,
2013-10-28 09:59:00,40.8,32.8,30.21,SE,125,2.0,4.3,73,0.00,,---,0.00,VWS V14.01,2013-10-28 13:59:00,
2013-10-28 10:04:00,40.8,32.8,30.21,North,350,1.7,3.6,73,0.00,,---,0.00,VWS V14.01,2013-10-28 14:04:00,
2013-10-28 10:09:00,40.9,33.0,30.21,NE,35,5.3,5.3,73,0.00,,---,0.00,VWS V14.01,2013-10-28 14:09:00,
2013-10-28 10:14:00,41.1,32.8,30.21,NE,35,4.0,6.0,72,0.00,,---,0.00,VWS V14.01,2013-10-28 14:14:00,
2013-10-28 10:19:00,41.7,33.3,30.21,NE,35,7.3,7.3,72,0.00,,---,0.00,VWS V14.01,2013-10-28 14:19:00,
2013-10-28 10:24:00,42.4,33.7,30.21,East,80,5.6,9.3,71,0.00,,---,0.00,VWS V14.01,2013-10-28 14:24:00,
2013-10-28 10:29:00,42.9,34.2,30.21,NE,35,4.3,4.3,71,0.00,,---,0.00,VWS V14.01,2013-10-28 14:29:00,
2013-10-28 10:34:00,42.6,33.5,30.21,ENE,58,4.3,4.3,70,0.00,,---,0.00,VWS V14.01,2013-10-28 14:34:00,
2013-10-28 10:39:00,42.4,33.3,30.21,North,350,4.3,4.3,70,0.00,,---,0.00,VWS V14.01,2013-10-28 14:39:00,
2013-10-28 10:44:00,42.4,33.3,30.21,ENE,58,3.0,3.0,70,0.00,,---,0.00,VWS V14.01,2013-10-28 14:44:00,
2013-10-28 10:49:00,43.5,34.3,30.21,East,80,0.0,3.0,70,0.00,,---,0.00,VWS V14.01,2013-10-28 14:49:00,
2013-10-28 10:54:00,44.0,34.9,30.21,East,80,3.6,3.6,70,0.00,,---,0.00,VWS V14.01,2013-10-28 14:54:00,
2013-10-28 10:59:00,45.1,35.5,30.21,SW,215,3.3,3.3,69,0.00,,---,0.00,VWS V14.01,2013-10-28 14:59:00,
2013-10-28 11:04:00,45.8,35.8,30.21,NE,35,5.0,5.0,68,0.00,,---,0.00,VWS V14.01,2013-10-28 15:04:00,
2013-10-28 11:09:00,45.6,35.7,30.21,NE,35,5.0,5.6,68,0.00,,---,0.00,VWS V14.01,2013-10-28 15:09:00,
2013-10-28 11:14:00,46.2,35.8,30.21,SE,125,3.6,4.0,67,0.00,,---,0.00,VWS V14.01,2013-10-28 15:14:00,
2013-10-28 11:19:00,46.5,35.8,30.21,ESE,102,4.3,7.0,66,0.00,,---,0.00,VWS V14.01,2013-10-28 15:19:00,
2013-10-28 11:24:00,46.5,35.8,30.21,East,80,3.6,3.6,66,0.00,,---,0.00,VWS V14.01,2013-10-28 15:24:00,
2013-10-28 11:29:00,46.9,36.1,30.21,NE,35,5.3,5.3,66,0.00,,---,0.00,VWS V14.01,2013-10-28 15:29:00,
2013-10-28 11:34:00,46.9,35.8,30.21,SE,125,2.3,2.3,65,0.00,,---,0.00,VWS V14.01,2013-10-28 15:34:00,
2013-10-28 11:39:00,46.7,35.6,30.24,East,80,4.6,5.3,65,0.00,,---,0.00,VWS V14.01,2013-10-28 15:39:00,
2013-10-28 11:44:00,46.9,35.8,30.24,ENE,58,6.0,6.0,65,0.00,,---,0.00,VWS V14.01,2013-10-28 15:44:00,
2013-10-28 11:49:00,47.2,36.1,30.24,East,80,5.6,7.9,65,0.00,,---,0.00,VWS V14.01,2013-10-28 15:49:00,
2013-10-28 11:54:00,47.6,36.0,30.24,NE,35,6.3,6.3,64,0.00,,---,0.00,VWS V14.01,2013-10-28 15:54:00,
2013-10-28 11:59:00,47.8,36.2,30.24,NE,35,5.6,6.0,64,0.00,,---,0.00,VWS V14.01,2013-10-28 15:59:00,
2013-10-28 12:04:00,48.3,36.7,30.24,NE,35,5.6,5.6,64,0.00,,---,0.00,VWS V14.01,2013-10-28 16:04:00,
2013-10-28 12:09:00,49.2,37.2,30.24,WNW,282,1.7,4.3,63,0.00,,---,0.00,VWS V14.01,2013-10-28 16:09:00,
2013-10-28 12:14:00,50.5,38.0,30.24,SE,125,8.9,8.9,62,0.00,,---,0.00,VWS V14.01,2013-10-28 16:14:00,
2013-10-28 12:19:00,50.7,37.7,30.24,East,80,3.3,6.3,61,0.00,,---,0.00,VWS V14.01,2013-10-28 16:19:00,
2013-10-28 12:24:00,50.5,37.1,30.24,North,350,3.0,3.0,60,0.00,,---,0.00,VWS V14.01,2013-10-28 16:24:00,
2013-10-28 12:29:00,50.7,37.3,30.24,ENE,58,7.3,7.3,60,0.00,,---,0.00,VWS V14.01,2013-10-28 16:29:00,
2013-10-28 12:34:00,51.7,37.9,30.24,SE,125,8.6,8.6,59,0.00,,---,0.00,VWS V14.01,2013-10-28 16:34:00,
2013-10-28 12:40:00,51.7,37.5,30.24,NNE,12,5.6,6.3,58,0.00,,---,0.00,VWS V14.01,2013-10-28 16:40:00,
2013-10-28 12:45:00,52.3,38.0,30.24,East,80,6.0,6.0,58,0.00,,---,0.00,VWS V14.01,2013-10-28 16:45:00,
2013-10-28 12:50:00,52.5,37.7,30.24,NE,35,3.6,3.6,57,0.00,,---,0.00,VWS V14.01,2013-10-28 16:50:00,
2013-10-28 12:55:00,52.5,38.1,30.24,East,80,5.3,5.6,58,0.00,,---,0.00,VWS V14.01,2013-10-28 16:55:00,
2013-10-28 13:00:00,53.2,38.4,30.24,North,350,3.0,4.0,57,0.00,,---,0.00,VWS V14.01,2013-10-28 17:00:00,
2013-10-28 13:05:00,53.5,38.2,30.24,NE,35,3.3,3.6,56,0.00,,---,0.00,VWS V14.01,2013-10-28 17:05:00,
2013-10-28 13:10:00,53.7,38.0,30.24,North,350,5.0,5.0,55,0.00,,---,0.00,VWS V14.01,2013-10-28 17:10:00,
2013-10-28 13:15:00,53.7,38.0,30.24,NE,35,5.6,5.6,55,0.00,,---,0.00,VWS V14.01,2013-10-28 17:15:00,
2013-10-28 13:20:00,53.9,38.6,30.24,NE,35,2.3,6.3,56,0.00,,---,0.00,VWS V14.01,2013-10-28 17:20:00,
2013-10-28 13:25:00,54.3,38.5,30.24,NE,35,3.0,5.0,55,0.00,,---,0.00,VWS V14.01,2013-10-28 17:25:00,
2013-10-28 13:30:00,54.1,37.8,30.24,NE,35,5.3,5.6,54,0.00,,---,0.00,VWS V14.01,2013-10-28 17:30:00,
2013-10-28 13:35:00,55.7,39.3,30.24,NE,35,4.6,5.6,54,0.00,,---,0.00,VWS V14.01,2013-10-28 17:35:00,
2013-10-28 13:40:00,55.5,38.7,30.24,NE,35,5.0,5.0,53,0.00,,---,0.00,VWS V14.01,2013-10-28 17:40:00,
2013-10-28 13:45:00,54.6,38.3,30.24,East,80,5.6,5.6,54,0.00,,---,0.00,VWS V14.01,2013-10-28 17:45:00,
2013-10-28 13:50:00,54.1,37.3,30.24,NE,35,3.6,3.6,53,0.00,,---,0.00,VWS V14.01,2013-10-28 17:50:00,
2013-10-28 13:55:00,55.7,38.8,30.24,NW,305,2.0,2.3,53,0.00,,---,0.00,VWS V14.01,2013-10-28 17:55:00,
2013-10-28 14:00:00,55.2,38.3,30.24,NE,35,3.6,3.6,53,0.00,,---,0.00,VWS V14.01,2013-10-28 18:00:00,
2013-10-28 14:05:00,55.2,38.3,30.24,NE,35,4.3,4.3,53,0.00,,---,0.00,VWS V14.01,2013-10-28 18:05:00,
2013-10-28 14:10:00,55.7,38.8,30.24,ESE,102,2.0,2.0,53,0.00,,---,0.00,VWS V14.01,2013-10-28 18:10:00,
2013-10-28 14:15:00,55.0,37.7,30.24,East,80,3.6,4.3,52,0.00,,---,0.00,VWS V14.01,2013-10-28 18:15:00,
2013-10-28 14:20:00,54.3,37.5,30.24,NE,35,4.6,4.6,53,0.00,,---,0.00,VWS V14.01,2013-10-28 18:20:00,
2013-10-28 14:25:00,53.9,37.2,30.24,North,350,4.6,4.6,53,0.00,,---,0.00,VWS V14.01,2013-10-28 18:25:00,
2013-10-28 14:30:00,53.9,37.2,30.24,East,80,3.6,3.6,53,0.00,,---,0.00,VWS V14.01,2013-10-28 18:30:00,
2013-10-28 14:35:00,54.8,37.5,30.24,NE,35,4.3,8.9,52,0.00,,---,0.00,VWS V14.01,2013-10-28 18:35:00,
2013-10-28 14:40:00,54.8,37.5,30.24,NE,35,5.0,5.0,52,0.00,,---,0.00,VWS V14.01,2013-10-28 18:40:00,
2013-10-28 14:45:00,54.1,36.9,30.24,NE,35,4.3,6.0,52,0.00,,---,0.00,VWS V14.01,2013-10-28 18:45:00,
2013-10-28 14:50:00,55.0,37.7,30.24,NE,35,4.6,4.6,52,0.00,,---,0.00,VWS V14.01,2013-10-28 18:50:00,
2013-10-28 14:55:00,54.8,37.0,30.24,ESE,102,2.3,4.0,51,0.00,,---,0.00,VWS V14.01,2013-10-28 18:55:00,
2013-10-28 15:00:00,54.3,37.0,30.24,North,350,5.6,5.6,52,0.00,,---,0.00,VWS V14.01,2013-10-28 19:00:00,
2013-10-28 15:05:00,54.3,37.0,30.24,NE,35,7.3,7.3,52,0.00,,---,0.00,VWS V14.01,2013-10-28 19:05:00,
2013-10-28 15:10:00,54.1,36.9,30.24,NE,35,3.6,3.6,52,0.00,,---,0.00,VWS V14.01,2013-10-28 19:10:00,
2013-10-28 15:15:00,53.9,36.7,30.24,North,350,4.3,5.0,52,0.00,,---,0.00,VWS V14.01,2013-10-28 19:15:00,
2013-10-28 15:20:00,53.9,36.7,30.24,ENE,58,5.0,5.0,52,0.00,,---,0.00,VWS V14.01,2013-10-28 19:20:00,
2013-10-28 15:25:00,53.7,36.5,30.24,SE,125,1.7,3.3,52,0.00,,---,0.00,VWS V14.01,2013-10-28 19:25:00,
2013-10-28 15:31:00,54.1,36.9,30.24,NE,35,0.0,2.0,52,0.00,,---,0.00,VWS V14.01,2013-10-28 19:31:00,
2013-10-28 15:36:00,53.9,36.7,30.24,NE,35,3.6,3.6,52,0.00,,---,0.00,VWS V14.01,2013-10-28 19:36:00,
2013-10-28 15:41:00,53.9,36.7,30.24,NNE,12,4.6,5.0,52,0.00,,---,0.00,VWS V14.01,2013-10-28 19:41:00,
2013-10-28 15:46:00,53.5,36.4,30.24,NE,35,4.6,4.6,52,0.00,,---,0.00,VWS V14.01,2013-10-28 19:46:00,
2013-10-28 15:51:00,52.8,36.2,30.24,NE,35,1.3,4.0,53,0.00,,---,0.00,VWS V14.01,2013-10-28 19:51:00,
2013-10-28 15:56:00,52.8,35.7,30.24,ENE,58,2.3,4.6,52,0.00,,---,0.00,VWS V14.01,2013-10-28 19:56:00,
2013-10-28 16:01:00,52.8,36.2,30.24,North,350,1.3,3.6,53,0.00,,---,0.00,VWS V14.01,2013-10-28 20:01:00,
2013-10-28 16:06:00,53.2,36.0,30.24,NE,35,5.0,5.0,52,0.00,,---,0.00,VWS V14.01,2013-10-28 20:06:00,
2013-10-28 16:11:00,52.8,35.7,30.24,East,80,3.3,4.0,52,0.00,,---,0.00,VWS V14.01,2013-10-28 20:11:00,
2013-10-28 16:16:00,52.8,35.7,30.24,NE,35,3.0,5.3,52,0.00,,---,0.00,VWS V14.01,2013-10-28 20:16:00,
2013-10-28 16:21:00,52.8,35.7,30.24,NE,35,5.0,5.0,52,0.00,,---,0.00,VWS V14.01,2013-10-28 20:21:00,
2013-10-28 16:26:00,52.3,35.2,30.24,North,350,4.3,4.3,52,0.00,,---,0.00,VWS V14.01,2013-10-28 20:26:00,
2013-10-28 16:31:00,52.3,35.2,30.24,North,350,2.0,3.3,52,0.00,,---,0.00,VWS V14.01,2013-10-28 20:31:00,
2013-10-28 16:36:00,51.9,35.3,30.24,NE,35,3.0,3.6,53,0.00,,---,0.00,VWS V14.01,2013-10-28 20:36:00,
2013-10-28 16:41:00,51.7,35.2,30.24,SE,125,1.3,1.3,53,0.00,,---,0.00,VWS V14.01,2013-10-28 20:41:00,
2013-10-28 16:46:00,51.7,35.2,30.24,NE,35,2.3,2.3,53,0.00,,---,0.00,VWS V14.01,2013-10-28 20:46:00,
2013-10-28 16:51:00,51.6,35.0,30.24,East,80,2.3,3.0,53,0.00,,---,0.00,VWS V14.01,2013-10-28 20:51:00,
2013-10-28 16:56:00,51.6,35.0,30.24,NE,35,4.3,4.3,53,0.00,,---,0.00,VWS V14.01,2013-10-28 20:56:00,
2013-10-28 17:01:00,51.4,34.8,30.24,NE,35,2.0,2.3,53,0.00,,---,0.00,VWS V14.01,2013-10-28 21:01:00,
2013-10-28 17:06:00,51.6,35.0,30.24,NW,305,3.0,3.0,53,0.00,,---,0.00,VWS V14.01,2013-10-28 21:06:00,
2013-10-28 17:11:00,51.4,34.8,30.24,NE,35,3.6,4.0,53,0.00,,---,0.00,VWS V14.01,2013-10-28 21:11:00,
2013-10-28 17:16:00,51.4,34.8,30.24,North,350,5.3,5.3,53,0.00,,---,0.00,VWS V14.01,2013-10-28 21:16:00,
2013-10-28 17:21:00,51.4,34.8,30.24,North,350,2.3,2.3,53,0.00,,---,0.00,VWS V14.01,2013-10-28 21:21:00,
2013-10-28 17:26:00,51.4,34.8,30.24,ENE,58,4.3,4.3,53,0.00,,---,0.00,VWS V14.01,2013-10-28 21:26:00,
2013-10-28 17:31:00,51.2,34.7,30.24,North,350,3.6,3.6,53,0.00,,---,0.00,VWS V14.01,2013-10-28 21:31:00,
2013-10-28 17:36:00,50.8,34.8,30.24,North,350,4.6,6.0,54,0.00,,---,0.00,VWS V14.01,2013-10-28 21:36:00,
2013-10-28 17:41:00,50.5,34.5,30.24,NE,35,4.3,4.3,54,0.00,,---,0.00,VWS V14.01,2013-10-28 21:41:00,
2013-10-28 17:46:00,49.9,34.0,30.24,NE,35,5.0,5.0,54,0.00,,---,0.00,VWS V14.01,2013-10-28 21:46:00,
2013-10-28 17:51:00,49.6,33.6,30.24,North,350,5.6,5.6,54,0.00,,---,0.00,VWS V14.01,2013-10-28 21:51:00,
2013-10-28 17:57:00,48.7,33.2,30.24,NW,305,6.0,6.0,55,0.00,,---,0.00,VWS V14.01,2013-10-28 21:57:00,
2013-10-28 18:02:00,48.1,32.8,30.24,NE,35,5.6,5.6,55,0.00,,---,0.00,VWS V14.01,2013-10-28 22:02:00,
2013-10-28 18:07:00,47.8,32.4,30.24,ENE,58,4.3,4.3,55,0.00,,---,0.00,VWS V14.01,2013-10-28 22:07:00,
2013-10-28 18:12:00,47.4,32.5,30.24,NE,35,4.0,4.0,56,0.00,,---,0.00,VWS V14.01,2013-10-28 22:12:00,
2013-10-28 18:17:00,46.9,32.0,30.24,NE,35,7.9,7.9,56,0.00,,---,0.00,VWS V14.01,2013-10-28 22:17:00,
2013-10-28 18:22:00,46.5,32.1,30.24,NE,35,4.3,4.6,57,0.00,,---,0.00,VWS V14.01,2013-10-28 22:22:00,
2013-10-28 18:27:00,46.2,31.8,30.24,East,80,5.3,5.3,57,0.00,,---,0.00,VWS V14.01,2013-10-28 22:27:00,
2013-10-28 18:32:00,45.8,31.5,30.24,NE,35,3.6,3.6,57,0.00,,---,0.00,VWS V14.01,2013-10-28 22:32:00,
2013-10-28 18:37:00,45.4,31.5,30.24,North,350,4.3,4.3,58,0.00,,---,0.00,VWS V14.01,2013-10-28 22:37:00,
2013-10-28 18:42:00,45.4,31.5,30.24,North,350,3.0,3.6,58,0.00,,---,0.00,VWS V14.01,2013-10-28 22:42:00,
2013-10-28 18:47:00,45.1,31.6,30.24,West,260,4.3,4.6,59,0.00,,---,0.00,VWS V14.01,2013-10-28 22:47:00,
2013-10-28 18:52:00,44.7,31.3,30.27,NE,35,6.3,6.3,59,0.00,,---,0.00,VWS V14.01,2013-10-28 22:52:00,
2013-10-28 18:57:00,44.5,31.5,30.27,NE,35,4.0,4.0,60,0.00,,---,0.00,VWS V14.01,2013-10-28 22:57:00,
2013-10-28 19:02:00,44.2,31.2,30.27,NE,35,2.3,2.3,60,0.00,,---,0.00,VWS V14.01,2013-10-28 23:02:00,
2013-10-28 19:07:00,44.2,31.2,30.27,NE,35,3.6,3.6,60,0.00,,---,0.00,VWS V14.01,2013-10-28 23:07:00,
2013-10-28 19:12:00,43.8,31.3,30.27,North,350,3.6,3.6,61,0.00,,---,0.00,VWS V14.01,2013-10-28 23:12:00,
2013-10-28 19:17:00,43.5,30.9,30.27,North,350,4.0,5.0,61,0.00,,---,0.00,VWS V14.01,2013-10-28 23:17:00,
2013-10-28 19:22:00,43.5,30.9,30.27,NE,35,3.6,8.6,61,0.00,,---,0.00,VWS V14.01,2013-10-28 23:22:00,
2013-10-28 19:27:00,43.3,30.8,30.27,NE,35,5.0,5.0,61,0.00,,---,0.00,VWS V14.01,2013-10-28 23:27:00,
2013-10-28 19:32:00,43.1,31.0,30.27,North,350,3.6,3.6,62,0.00,,---,0.00,VWS V14.01,2013-10-28 23:32:00,
2013-10-28 19:37:00,42.7,30.6,30.27,NE,35,4.0,5.6,62,0.00,,---,0.00,VWS V14.01,2013-10-28 23:37:00,
2013-10-28 19:42:00,42.6,30.9,30.27,NE,35,5.6,5.6,63,0.00,,---,0.00,VWS V14.01,2013-10-28 23:42:00,
2013-10-28 19:47:00,42.4,30.7,30.27,North,350,5.0,5.0,63,0.00,,---,0.00,VWS V14.01,2013-10-28 23:47:00,
2013-10-28 19:52:00,42.4,30.7,30.27,NE,35,4.6,4.6,63,0.00,,---,0.00,VWS V14.01,2013-10-28 23:52:00,
2013-10-28 19:57:00,42.2,30.5,30.27,North,350,4.0,5.3,63,0.00,,---,0.00,VWS V14.01,2013-10-28 23:57:00,
2013-10-28 20:02:00,42.0,30.4,30.27,NE,35,5.0,5.0,63,0.00,,---,0.00,VWS V14.01,2013-10-29 00:02:00,
2013-10-28 20:07:00,41.8,30.2,30.27,East,80,5.3,5.3,63,0.00,,---,0.00,VWS V14.01,2013-10-29 00:07:00,
2013-10-28 20:12:00,41.7,30.0,30.27,East,80,4.0,4.0,63,0.00,,---,0.00,VWS V14.01,2013-10-29 00:12:00,
2013-10-28 20:17:00,41.7,30.0,30.27,East,80,5.0,5.0,63,0.00,,---,0.00,VWS V14.01,2013-10-29 00:17:00,
2013-10-28 20:22:00,41.7,30.0,30.30,NE,35,4.3,4.3,63,0.00,,---,0.00,VWS V14.01,2013-10-29 00:22:00,
2013-10-28 20:27:00,41.5,29.8,30.30,NE,35,4.3,9.6,63,0.00,,---,0.00,VWS V14.01,2013-10-29 00:27:00,
2013-10-28 20:32:00,41.5,29.8,30.30,NNE,12,4.6,4.6,63,0.00,,---,0.00,VWS V14.01,2013-10-29 00:32:00,
2013-10-28 20:37:00,41.5,29.5,30.30,NE,35,3.0,6.0,62,0.00,,---,0.00,VWS V14.01,2013-10-29 00:37:00,
2013-10-28 20:42:00,41.3,29.3,30.30,NE,35,3.6,4.0,62,0.00,,---,0.00,VWS V14.01,2013-10-29 00:42:00,
2013-10-28 20:47:00,41.1,29.1,30.30,North,350,2.3,5.0,62,0.00,,---,0.00,VWS V14.01,2013-10-29 00:47:00,
2013-10-28 20:53:00,41.1,29.1,30.30,NE,35,4.3,5.0,62,0.00,,---,0.00,VWS V14.01,2013-10-29 00:53:00,
2013-10-28 20:58:00,41.1,29.1,30.30,NE,35,5.0,5.0,62,0.00,,---,0.00,VWS V14.01,2013-10-29 00:58:00,
2013-10-28 21:03:00,40.9,28.9,30.30,ENE,58,3.6,4.6,62,0.00,,---,0.00,VWS V14.01,2013-10-29 01:03:00,
2013-10-28 21:08:00,40.8,28.8,30.30,North,350,2.0,4.3,62,0.00,,---,0.00,VWS V14.01,2013-10-29 01:08:00,
2013-10-28 21:13:00,40.6,29.0,30.30,North,350,4.0,4.6,63,0.00,,---,0.00,VWS V14.01,2013-10-29 01:13:00,
2013-10-28 21:18:00,40.6,29.0,30.30,North,350,3.6,3.6,63,0.00,,---,0.00,VWS V14.01,2013-10-29 01:18:00,
2013-10-28 21:23:00,40.4,28.8,30.30,NE,35,3.6,3.6,63,0.00,,---,0.00,VWS V14.01,2013-10-29 01:23:00,
2013-10-28 21:28:00,40.4,28.8,30.30,NE,35,2.3,4.6,63,0.00,,---,0.00,VWS V14.01,2013-10-29 01:28:00,
2013-10-28 21:33:00,40.2,28.6,30.30,ENE,58,4.0,4.0,63,0.00,,---,0.00,VWS V14.01,2013-10-29 01:33:00,
2013-10-28 21:38:00,40.2,29.0,30.30,North,350,2.3,4.6,64,0.00,,---,0.00,VWS V14.01,2013-10-29 01:38:00,
2013-10-28 21:43:00,40.0,28.5,30.30,NE,35,3.0,3.0,63,0.00,,---,0.00,VWS V14.01,2013-10-29 01:43:00,
2013-10-28 21:48:00,40.0,28.9,30.30,NE,35,2.3,2.3,64,0.00,,---,0.00,VWS V14.01,2013-10-29 01:48:00,
2013-10-28 21:53:00,40.0,28.9,30.33,NE,35,3.0,3.0,64,0.00,,---,0.00,VWS V14.01,2013-10-29 01:53:00,
2013-10-28 21:58:00,39.9,28.7,30.33,East,80,4.6,4.6,64,0.00,,---,0.00,VWS V14.01,2013-10-29 01:58:00,
2013-10-28 22:03:00,39.9,28.3,30.33,NE,35,4.3,4.6,63,0.00,,---,0.00,VWS V14.01,2013-10-29 02:03:00,
2013-10-28 22:08:00,39.7,28.1,30.33,NE,35,3.6,4.6,63,0.00,,---,0.00,VWS V14.01,2013-10-29 02:08:00,
2013-10-28 22:13:00,39.7,28.5,30.33,East,80,3.0,3.6,64,0.00,,---,0.00,VWS V14.01,2013-10-29 02:13:00,
2013-10-28 22:18:00,39.5,28.4,30.33,ENE,58,3.6,3.6,64,0.00,,---,0.00,VWS V14.01,2013-10-29 02:18:00,
2013-10-28 22:23:00,39.3,28.2,30.33,NE,35,3.6,3.6,64,0.00,,---,0.00,VWS V14.01,2013-10-29 02:23:00,
2013-10-28 22:28:00,39.3,28.2,30.33,NE,35,4.0,4.0,64,0.00,,---,0.00,VWS V14.01,2013-10-29 02:28:00,
2013-10-28 22:33:00,39.1,28.0,30.33,ENE,58,2.3,2.3,64,0.00,,---,0.00,VWS V14.01,2013-10-29 02:33:00,
2013-10-28 22:38:00,39.1,28.0,30.33,NE,35,1.7,3.6,64,0.00,,---,0.00,VWS V14.01,2013-10-29 02:38:00,
2013-10-28 22:43:00,39.0,27.8,30.33,NE,35,2.3,3.0,64,0.00,,---,0.00,VWS V14.01,2013-10-29 02:43:00,
2013-10-28 22:48:00,39.0,27.8,30.33,North,350,2.3,2.3,64,0.00,,---,0.00,VWS V14.01,2013-10-29 02:48:00,
2013-10-28 22:53:00,38.8,28.0,30.33,NE,35,2.3,4.3,65,0.00,,---,0.00,VWS V14.01,2013-10-29 02:53:00,
2013-10-28 22:58:00,38.8,28.0,30.33,North,350,3.0,3.0,65,0.00,,---,0.00,VWS V14.01,2013-10-29 02:58:00,
2013-10-28 23:03:00,38.8,28.0,30.33,NE,35,3.0,3.6,65,0.00,,---,0.00,VWS V14.01,2013-10-29 03:03:00,
2013-10-28 23:08:00,38.8,28.0,30.33,NE,35,3.3,3.3,65,0.00,,---,0.00,VWS V14.01,2013-10-29 03:08:00,
2013-10-28 23:13:00,38.6,27.9,30.33,NE,35,0.0,3.0,65,0.00,,---,0.00,VWS V14.01,2013-10-29 03:13:00,
2013-10-28 23:18:00,38.6,27.9,30.33,NE,35,2.0,2.0,65,0.00,,---,0.00,VWS V14.01,2013-10-29 03:18:00,
2013-10-28 23:23:00,38.6,27.9,30.33,NE,35,2.3,2.3,65,0.00,,---,0.00,VWS V14.01,2013-10-29 03:23:00,
2013-10-28 23:28:00,38.6,27.9,30.33,NE,35,2.3,2.3,65,0.00,,---,0.00,VWS V14.01,2013-10-29 03:28:00,
2013-10-28 23:33:00,38.4,28.1,30.33,East,80,3.3,3.6,66,0.00,,---,0.00,VWS V14.01,2013-10-29 03:33:00,
2013-10-28 23:38:00,38.4,28.1,30.33,East,80,2.3,2.3,66,0.00,,---,0.00,VWS V14.01,2013-10-29 03:38:00,
2013-10-28 23:43:00,38.2,27.9,30.33,East,80,2.3,3.3,66,0.00,,---,0.00,VWS V14.01,2013-10-29 03:43:00,
2013-10-28 23:49:00,38.1,27.7,30.33,NE,35,2.0,3.0,66,0.00,,---,0.00,VWS V14.01,2013-10-29 03:49:00,
2013-10-28 23:54:00,38.1,28.1,30.33,South,170,4.0,4.0,67,0.00,,---,0.00,VWS V14.01,2013-10-29 03:54:00,
2013-10-28 23:59:00,38.1,28.1,30.33,NE,35,1.7,1.7,67,0.00,,---,0.00,VWS V14.01,2013-10-29 03:59:00,